Preview of NWS' New Version of Forecast
This preview is not operational and should not be used for support decisions.
Latest weather observations around

Williamsburg-Whitley County Airport (KBYL)

Using English Units (Switch to International System of Units)
Date/ Time (EDT) Wind (mph) Vis. (mi) Weather Sky Cond. Temp (°F) Rel. Humidity Wind Chill (°F) Heat Index (°F) Pressure Precip. (in)
Air Dwpt 6 hour Altimeter (inHg) Sea level (inHg) 1 hr 3 hr 6 hr
Max Min
Sep 23 03:15 Calm 10 Clear   64 55     73%     30.1        
Sep 23 02:55 Calm 10 Clear   64 55     73%     30.1        
Sep 23 02:35 Calm 10 Clear   64 55     73%     30.11        
Sep 23 02:15 Calm 10 Clear   66 55     68%     30.11        
Sep 23 01:55 Calm 10 Clear   64 55     73%     30.1        
Sep 23 01:35 Calm 10 Clear   64 55     73%     30.1        
Sep 23 01:15 Calm 10 Clear   66 55     68%     30.1        
Sep 23 00:55 S 3 10 Clear CLR 68 55     64%     30.1        
Sep 23 00:35 S 7 10 Clear   68 55     64%     30.11        
Sep 23 00:15 SSW 7 10 Clear CLR 68 55     64%     30.11        
Sep 22 23:55 WSW 3 10 Clear CLR 68 55     64%     30.11        
Sep 22 23:35 Calm 10 Clear   66 55     68%     30.11        
Sep 22 23:15 W 5 10 Clear   66 55     68%     30.11        
Sep 22 22:55 Calm 10 Clear CLR 68 55     64%     30.11        
Sep 22 22:35 SSW 5 10 Clear   68 55     64%     30.1        
Sep 22 22:15 Calm 10 Clear   72 55     57%   71 30.1        
Sep 22 21:55 Calm 10 Clear   72 54     53%   71 30.1        
Sep 22 21:35 Calm 10 Clear   73 55     53%   73 30.1        
Sep 22 21:15 Calm 10 Clear   73 55     53%   73 30.1        
Sep 22 20:55 Calm 10 Clear   75 55     50%   75 30.1        
Sep 22 20:35 Calm 10 Clear   75 54     47%   75 30.09        
Sep 22 20:15 SE 3 10 Clear   77 54     44%   76 30.09        
Sep 22 19:55 SSE 5 10 Clear CLR 77 54     44%   76 30.09        
Sep 22 19:35 SSE 5 10 Clear   81 54     39%   80 30.09        
Sep 22 19:15 S 6 10 Clear CLR 81 54     39%   80 30.08        
Sep 22 18:55 SSE 7 10 Clear   84 54     35%   83 30.08        
Sep 22 18:35 S 7 10 Clear   84 54     35%   83 30.08        
Sep 22 18:15 S 8 10 Clear   86 54     33%   84 30.08        
Sep 22 17:55 S 7 10 Clear   86 54     33%   84 30.09        
Sep 22 17:35 SSE 8 10 Clear   88 54     31%   86 30.09        
Sep 22 17:15 SW 3 10 Clear   88 54     31%   86 30.09        
Sep 22 16:55 S 7 10 Clear   88 52     29%   85 30.1        
Sep 22 16:35 SSE 8 10 Clear   88 52     29%   85 30.1        
Sep 22 16:15 S 9 10 Clear   88 50     27%   85 30.1        
Sep 22 15:55 SSW 7 10 Clear CLR 88 52     29%   85 30.11        
Sep 22 15:35 SSW 9 10 Clear   86 52     31%   84 30.11        
Sep 22 15:15 SW 9 10 Clear   86 50     29%   84 30.12        
Sep 22 14:55 SSW 12 10 Clear   86 54     33%   84 30.13        
Sep 22 14:35 S 12 10 Clear   86 54     33%   84 30.14        
Sep 22 14:15 SW 8 10 Clear   86 54     33%   84 30.15        
Sep 22 13:55 SE 5 10 Clear   84 54     35%   83 30.16        
Sep 22 13:35 S 12 10 Clear   84 55     37%   83 30.17        
Sep 22 13:15 S 6 10 Clear   84 55     37%   83 30.19        
Sep 22 12:55 SW 7 10 Clear   84 54     35%   83 30.19        
Sep 22 12:35 SW 8 10 Clear   84 54     35%   83 30.2        
Sep 22 12:15 S 7 10 Clear   82 54     37%   81 30.21        
Sep 22 11:55 SW 7 10 Clear   82 55     40%   82 30.22        
Sep 22 11:35 W 5 10 Clear CLR 81 55     42%   81 30.22        
Sep 22 11:15 SSW 6 10 Clear   81 57     45%   81 30.23        
Sep 22 10:55 S 3 10 Clear   79 59     51%   79 30.23        
Sep 22 10:35 SE 3 10 Clear   75 59     57%   75 30.24        
Sep 22 10:15 SE 5 10 Clear   73 59     61%   73 30.24        
Sep 22 09:55 SE 5 10 Clear   72 59     65%   71 30.24        
Sep 22 09:35 Calm 10 Clear   68 61     78%     30.24        
Sep 22 09:15 SSE 3 10 Clear   66 61     83%     30.24        
Sep 22 08:55 SE 3 10 Clear   64 61     88%     30.24        
Sep 22 08:35 SSE 3 10 Clear   63 61     94%     30.24        
Sep 22 08:15 SSE 3 10 Clear   63 63     100%     30.24        
Sep 22 07:55 SSE 5 10 Clear CLR 59 59     100%     30.24        
Sep 22 07:35 SE 3 10 Clear CLR 59 59     100%     30.24        
Sep 22 07:15 Calm 10 Clear   59 59     100%     30.24        
Sep 22 06:55 SE 3 10 Clear   59 59     100%     30.23        
Sep 22 06:35 Calm 10 Clear   59 59     100%     30.22        
Sep 22 06:15 Calm 10 Clear   59 59     100%     30.23        
Sep 22 05:55 Calm 10 Clear CLR 59 59     100%     30.22        
Sep 22 05:35 Calm 10 Clear   59 59     100%     30.22        
Sep 22 05:15 Calm 9 Clear CLR 59 59     100%     30.22        
Sep 22 04:55 Calm 10 Clear   59 59     100%     30.21        
Sep 22 04:35 Calm 10 Clear   59 59     100%     30.21        
Sep 22 04:15 Calm 10 Clear   59 59     100%     30.21        
Sep 22 03:55 Calm 10 Clear   63 63     100%     30.21        
Sep 22 03:35 SSE 3 10 Clear   63 63     100%     30.21        
Sep 22 03:15 Calm 10 Clear   63 63     100%     30.21        
Sep 22 02:55 Calm 10 Clear   63 63     100%     30.22        
Sep 22 02:35 Calm 10 Clear   63 63     100%     30.22        
Sep 22 02:15 Calm 10 Clear   63 63     100%     30.22        
Sep 22 01:55 SSE 3 10 Clear   64 63     94%     30.22        
Sep 22 01:35 Calm 10 Clear   63 63     100%     30.22        
Sep 22 01:15 Calm 10 Clear CLR 64 63     94%     30.22        
Sep 22 00:55 Calm 10 Clear   64 63     94%     30.22        
Sep 22 00:35 Calm 10 Clear   66 63     88%     30.22        
Sep 22 00:15 SE 5 10 Clear   66 63     88%     30.23        
Sep 21 23:55 Calm 10 Clear CLR 66 61     83%     30.23        
Sep 21 23:35 SSE 5 10 Clear   68 63     83%     30.23        
Sep 21 23:15 SE 3 10 Clear   68 61     78%     30.23        
Sep 21 22:55 SSE 3 10 Clear   68 61     78%     30.23        
Sep 21 22:35 Calm 10 Clear   68 61     78%     30.23        
Sep 21 22:15 Calm 10 Clear   68 61     78%     30.23        
Sep 21 21:55 Calm 10 Clear   68 61     78%     30.23        
Sep 21 21:35 Calm 10 Clear   72 59     65%   71 30.23        
Sep 21 21:15 Calm 10 Clear   73 59     61%   73 30.22        
Sep 21 20:55 Calm 10 Clear CLR 73 59     61%   73 30.22        
Sep 21 20:35 Calm 10 Clear   75 59     57%   75 30.21        
Sep 21 20:15 Calm 10 Clear   77 57     50%   77 30.21        
Sep 21 19:55 SE 3 10 Clear   77 57     50%   77 30.2        
Sep 21 19:35 SSE 3 10 Clear   81 57     45%   81 30.2        
Sep 21 19:15 SSE 5 10 Clear   81 57     45%   81 30.2        
Sep 21 18:55 SSE 6 10 Clear   82 57     42%   82 30.2        
Sep 21 18:35 S 7 10 Clear   84 57     40%   83 30.2        
Sep 21 18:15 S 8 10 Clear   86 57     38%   85 30.2        
Sep 21 17:55 SE 8 10 Clear   86 57     38%   85 30.2        
Sep 21 17:35 SSE 8 10 Clear   86 57     38%   85 30.2        
Sep 21 17:15 SSW 7 10 Clear   86 57     38%   85 30.21        
Sep 21 16:55 S 8 10 Clear   86 57     38%   85 30.21        
Sep 21 16:35 SSE 8 10 Clear   86 57     38%   85 30.22        
Sep 21 16:15 S 6 10 Clear   86 57     38%   85 30.22        
Sep 21 15:55 SE 7 10 Clear   86 57     38%   85 30.23        
Sep 21 15:35 E 6 10 Clear   86 57     38%   85 30.23        
Sep 21 15:15 ESE 7 10 Clear   86 57     38%   85 30.25        
Sep 21 14:55 SSE 5 10 Clear   84 57     40%   83 30.25        
Sep 21 14:35 ESE 5 10 Clear   84 57     40%   83 30.26        
Sep 21 14:15 ESE 5 10 Clear CLR 86 57     38%   85 30.27        
Sep 21 13:55 SSE 6 10 Clear   84 57     40%   83 30.28        
Sep 21 13:35 E 7 10 Clear   84 57     40%   83 30.28        
Sep 21 13:15 Calm 10 Clear   84 55     37%   83 30.3        
Sep 21 12:55 ESE 5 10 Clear   84 55     37%   83 30.3        
Sep 21 12:35 Calm 10 Clear   82 55     40%   82 30.31        
Sep 21 12:15 SW 5 10 Clear   82 55     40%   82 30.32        
Sep 21 11:55 SW 5 10 Clear   81 55     42%   81 30.33        
Sep 21 11:35 SW 7 10 Clear   81 55     42%   81 30.33        
Sep 21 11:15 SSW 8 10 Clear   77 55     47%   77 30.34        
Sep 21 10:55 SW 6 10 Clear   77 57     50%   77 30.34        
Sep 21 10:35 SW 6 10 Clear   75 57     54%   75 30.34        
Sep 21 10:15 Calm 10 Clear   73 63     69%   74 30.34        
Sep 21 09:55 SE 3 10 Clear   72 63     73%   72 30.34        
Sep 21 09:35 SE 3 10 Clear   68 63     83%     30.34        
Sep 21 09:15 SE 5 10 Clear   66 64     94%     30.34        
Sep 21 08:55 SE 6 10 Clear   64 64     100%     30.33        
Sep 21 08:35 Calm 10 Clear   63 63     100%     30.33        
Sep 21 08:15 Calm 10 Clear   63 63     100%     30.33        
Sep 21 07:55 Calm 10 Clear   61 61     100%     30.33        
Sep 21 07:35 Calm 9 Clear   59 59     100%     30.32        
Sep 21 07:15 Calm 8 Clear   59 59     100%     30.32        
Sep 21 06:55 Calm 8 Clear   59 59     100%     30.31        
Sep 21 06:35 Calm 10 Clear   59 59     100%     30.31        
Sep 21 06:15 Calm 4 Clear CLR 61 61     100%     30.3        
Sep 21 05:55 Calm 4 Clear CLR 59 59     100%     30.3        
Sep 21 05:35 Calm 7 Clear   61 61     100%     30.29        
Sep 21 05:15 Calm 5 Clear   59 59     100%     30.28        
Sep 21 04:55 Calm 6 Clear   63 63     100%     30.28        
Sep 21 04:35 Calm 10 Clear   63 63     100%     30.28        
Sep 21 04:15 Calm 9 Clear   63 63     100%     30.28        
Sep 21 03:55 Calm 9 Clear   63 63     100%     30.27        
Sep 21 03:35 Calm 5 Clear   61 61     100%     30.28        
Sep 21 03:15 Calm 10 Clear   63 63     100%     30.27        
Sep 21 02:55 Calm 10 Clear   63 63     100%     30.27        
Sep 21 02:35 Calm 10 Clear   63 63     100%     30.27        
Sep 21 02:15 Calm 10 Clear   64 64     100%     30.27        
Sep 21 01:55 Calm 10 Clear   63 63     100%     30.27        
Sep 21 01:35 Calm 10 Clear   64 64     100%     30.27        
Sep 21 01:15 Calm 10 Clear   64 64     100%     30.26        
Sep 21 00:55 Calm 10 Clear   64 64     100%     30.27        
Sep 21 00:35 Calm 10 Clear   64 64     100%     30.27        
Sep 21 00:15 Calm 10 Clear   66 66     100%     30.27        
Sep 20 23:55 Calm 10 Clear   64 64     100%     30.27        
Sep 20 23:35 Calm 10 Clear   66 64     94%     30.27        
Sep 20 23:15 Calm 10 Clear   68 64     88%     30.26        
Sep 20 22:55 Calm 10 Clear   66 64     94%     30.26        
Sep 20 22:35 Calm 10 Clear   68 64     88%     30.26        
Sep 20 22:15 Calm 10 Clear   70 64     83%     30.25        
Sep 20 21:55 SE 5 10 Clear   72 64     78%   72 30.25        
Sep 20 21:35 SE 6 10 Clear   72 64     78%   72 30.24        
Sep 20 21:15 Calm 10 Clear   72 64     78%   72 30.24        
Sep 20 20:55 Calm 10 Clear   73 63     69%   74 30.23        
Sep 20 20:35 Calm 10 Clear   75 63     65%   75 30.23        
Sep 20 20:15 Calm 10 Clear   75 63     65%   75 30.23        
Sep 20 19:55 Calm 10 Clear   77 63     61%   77 30.22        
Sep 20 19:35 Calm 10 Clear CLR 79 61     54%   79 30.21        
Sep 20 19:15 Calm 10 Clear   81 61     51%   81 30.21        
Sep 20 18:55 Calm 10 Clear   82 61     48%   83 30.21        
Sep 20 18:35 Calm 10 Clear   82 61     48%   83 30.21        
Sep 20 18:15 Calm 10 Clear   82 61     48%   83 30.21        
Sep 20 17:55 Calm 10 Clear CLR 82 61     48%   83 30.21        
Sep 20 17:35 NW 3 10 Clear CLR 84 61     45%   84 30.21        
Sep 20 17:15 NW 5 10 Clear CLR 84 61     45%   84 30.22        
Sep 20 16:55 Calm 10 Mostly Clear FEW060 82 61     48%   83 30.22        
Sep 20 16:35 NW 3 10 Clear   82 61     48%   83 30.22        
Sep 20 16:15 SW 3 10 Clear   82 61     48%   83 30.22        
Sep 20 15:55 SW 3 10 Clear   82 61     48%   83 30.23        
Sep 20 15:35 WNW 3 10 Clear   82 59     45%   82 30.23        
Sep 20 15:15 SW 6 10 Clear   81 59     48%   81 30.24        
Sep 20 14:55 W 5 10 Mostly Cloudy BKN042 82 59     45%   82 30.24        
Sep 20 14:35 WSW 3 10 Clear   81 59     48%   81 30.25        
Sep 20 14:15 W 5 10 Clear   81 59     48%   81 30.25        
Sep 20 13:55 WSW 5 10 Clear   81 59     48%   81 30.26        
Sep 20 13:35 SW 5 10 Clear   81 59     48%   81 30.27        
Sep 20 13:15 Calm 10 Clear   81 59     48%   81 30.27        
Sep 20 12:55 WSW 5 10 Clear   77 57     50%   77 30.28        
Sep 20 12:35 S 7 10 Clear   77 57     50%   77 30.28        
Sep 20 12:15 SSW 8 10 Clear   79 57     48%   79 30.28        
Sep 20 11:55 S 8 10 Clear   77 59     54%   77 30.29        
Sep 20 11:35 SSE 6 10 Clear   77 57     50%   77 30.29        
Sep 20 11:15 S 8 10 Clear   75 57     54%   75 30.3        
Sep 20 10:55 S 7 10 Clear CLR 75 57     54%   75 30.3        
Sep 20 10:35 SSE 6 10 Clear CLR 73 59     61%   73 30.3        
Sep 20 10:15 S 6 10 Clear CLR 72 59     65%   71 30.29        
Sep 20 09:55 SSE 5 10 Clear   70 59     69%     30.29        
Sep 20 09:35 SSE 7 10 Clear   68 59     73%     30.29        
Sep 20 09:15 SSE 6 10 Clear   68 59     73%     30.29        
Sep 20 08:55 SE 5 10 Clear   66 59     78%     30.28        
Sep 20 08:35 SE 5 10 Clear   66 59     78%     30.28        
Sep 20 08:15 SE 6 10 Clear   64 59     83%     30.27        
Sep 20 07:55 SE 6 10 Clear   63 59     88%     30.26        
Sep 20 07:35 SE 5 10 Clear   63 59     88%     30.26        
Sep 20 07:15 SE 6 10 Clear CLR 63 59     88%     30.26        
Sep 20 06:55 SE 5 10 Clear   63 59     88%     30.25        
Sep 20 06:35 SSE 6 10 Clear   64 59     83%     30.25        
Sep 20 06:15 SE 6 10 Clear   64 59     83%     30.25        
Sep 20 05:55 SE 6 10 Clear   64 59     83%     30.25        
Sep 20 05:35 SE 6 10 Clear   64 59     83%     30.24        
Sep 20 05:15 SE 5 10 Clear   64 59     83%     30.24        
Sep 20 04:55 SE 6 10 Mostly Cloudy BKN060 66 59     78%     30.23        
Sep 20 04:35 SSE 8 10 Mostly Cloudy SCT060 BKN065 66 59     78%     30.22        
Sep 20 03:55 SE 7 10 Clear   66 59     78%     30.22        
Sep 20 03:35 SE 6 10 Clear   66 59     78%     30.21        
Sep 20 03:15 SSE 6 10 Mostly Cloudy BKN060 66 59     78%     30.21        
Sep 20 02:55 SE 6 10 Clear   66 59     78%     30.21        
Sep 20 02:35 SSE 5 10 Clear   66 59     78%     30.21        
Sep 20 02:15 SSE 5 10 Clear   66 59     78%     30.21        
Sep 20 01:55 SSE 6 10 Clear CLR 66 59     78%     30.21        
Sep 20 01:35 SSE 7 10 Clear   66 59     78%     30.2        
Sep 20 01:15 SSE 7 10 Clear CLR 66 59     78%     30.2        
May 15 12:15 SSW 5 10 Clear   84 68     58%   87 30.01        
May 15 11:15 SSW 6 10 Clear   81 68     66%   83 30.02        
May 15 07:55 Calm 10 Clear   66 66     100%     30.02        
May 14 20:35 Calm 10 Clear   81 66     62%   83 29.97        
May 14 18:55 S 3 10 Clear   84 64     52%   86 29.98        
Notice The following observation data may not be complete
May 14 17:55   10 Clear            %              
May 14 12:35 N 3 10 Clear   82 64     55%   84 30.1        
May 13 23:35 Calm 10 Clear   68 64     88%     30.11        
May 13 21:35 Calm 10 Clear   75 61     61%   75 30.07        
May 13 20:35 WNW 5 10 Clear   79 61     54%   79 30.06        
May 13 13:55 W 6 10 Clear   84 61     45%   84 30.11        
May 13 09:15 Calm 9 Clear   66 64     94%     30.17        
May 13 08:15 Calm 9 Clear   61 61     100%     30.16        
May 13 02:35 Calm 8 Clear   59 59     100%     30.11        
May 12 16:55 WNW 8 10 Clear   84 57     40%   83 30.1        
May 12 11:55 WSW 7 10 Clear   81 59     48%   81 30.19        
May 12 09:55 SSW 6 10 Clear   75 63     65%   75 30.19        
May 12 03:55 Calm 10 Clear   63 63     100%     30.11        
May 12 01:15 SSE 7 10 Clear   64 63     94%     30.1        
May 11 22:15 Calm 10 Clear   72 59     65%   71 30.08        
May 11 14:35 SW 8 10 Clear   84 61     45%   84 30.09